Regional Weather Roundup
Issued by NWS

Home | Current Version | Previous Version | Text Only | Print | Product List | Glossary On
Versions: 1 2 3 4 5 6 7 8 9 10 11 12 13 14 15 16 17 18 19 20 21 22 23 24 25 26 27 28 29 30 31 32 33 34 35 36 37 38 39 40 41 42 43 44 45 46 47 48 49 50
000
ASUS46 KLOX 022213
RWRCA

SOUTHERN CALIFORNIA WEATHER ROUNDUP
NATIONAL WEATHER SERVICE OXNARD CALIFORNIA
300 PM PDT SUN AUG 02 2015

NOTE: "FAIR" INDICATES FEW OR NO CLOUDS BELOW 12,000 FEET WITH NO
SIGNIFICANT WEATHER AND/OR OBSTRUCTIONS TO VISIBILITY.

  -  STATIONS PRECEEDED BY AN ASTERISK (*) ARE NOT NWS OR FAA
     STATIONS AND ARE NOT SUBJECT TO NWS AND FAA QUALITY CONTROL.

CAZ041-042-087-022300-
LA AND ORANGE COUNTY COASTAL AREAS


CITY           SKY/WX    TMP DP  RH WIND       PRES   REMARKS
L.A. DOWNTOWN  SUNNY     80  64  58 W6        29.86F
L.A. AIRPORT   MOSUNNY   75  65  70 W12       29.88F
LONG BEACH     SUNNY     78  64  61 S9        29.87F

CITY           SKY/WX    TMP DP  RH WIND       PRES   REMARKS
AVALON           N/A     77 N/A N/A N3          N/A
FULLERTON      SUNNY     83  64  52 SW9       29.85F
*GETTY CENTER    N/A     79  63  57 SW12        N/A
HAWTHORNE      SUNNY     78  64  61 W13       29.88F
*LOS ALAMITOS  SUNNY     79  66  64 S12       29.87F
*REDONDO BEACH   N/A     78  65  63 W6        29.88F
SANTA ANA      MOSUNNY   78  64  61 S12       29.87F
STA MONICA APT SUNNY     75  65  70 SW12      29.88F
*STA MON PIER    N/A     70  67  88 W14       29.87F
TORRANCE       MOSUNNY   81  66  61 NW17      29.87F

$$

CAZ547-548-048-022300-
LA COUNTY VALLEYS AND INLAND EMPIRE


CITY           SKY/WX    TMP DP  RH WIND       PRES   REMARKS
BURBANK        SUNNY     89  63  41 S10       29.86F HX  90
VAN NUYS       SUNNY     90  63  40 SE10      29.85F HX  91

CITY           SKY/WX    TMP DP  RH WIND       PRES   REMARKS
CORONA AIRPORT CLEAR     90  62  38 W13       29.85F HX  90
CHINO          MOSUNNY   93  61  34 W12       29.86F HX  93
MARCH AFB      SUNNY     92  60  34 NW12      29.88F HX  91
*NORTHRIDGE      N/A     90  59  35 SE3G9       N/A
ONTARIO        MOSUNNY   91  60  35 SW15      29.86F HX  90
*PASADENA        N/A     91  66  43 E10         N/A  HX  94
RIVERSIDE      SUNNY     92  61  35 W7G16     29.85F HX  92
SAN BERNARDINO MOSUNNY   93  54  26 W6        29.88S HX  91
*WHITEMAN AP   SUNNY     88  61  40 SE8       29.90F
*WOODLAND HILL   N/A     93  61  33 NE3         N/A  HX  93

$$

CAZ054-055-022300-
LA AND SAN BERNARDINO COUNTY MOUNTAINS


CITY           SKY/WX    TMP DP  RH WIND       PRES   REMARKS
*BIG BEAR AIRP MOCLDY    75  43  31 W13       30.23F
SANDBERG       SUNNY     90  30  11 SW16G25   30.09F

$$

CAZ028-029-059-060-099-022300-
ANTELOPE VALLEY AND SURROUNDING AREAS


CITY           SKY/WX    TMP DP  RH WIND       PRES   REMARKS
LANCASTER      SUNNY     99  42  14 SW13G22   29.90F HX  94
PALMDALE       SUNNY     97  46  17 W13G20    29.91F HX  93

CITY           SKY/WX    TMP DP  RH WIND       PRES   REMARKS
29 PALMS       MOSUNNY  101  42  13 CALM      29.91F HX  96
BARSTOW/DAGGET SUNNY    104  36   9 VRB3      29.83F HX  98
BISHOP         SUNNY     93  39  15 VRB5      29.98F
CHINA LAKE     SUNNY    103  35   9 S18G26    29.85F HX  97
EDWARDS AFB    MOSUNNY  100  37  11 VRB7      29.86F HX  95
MOJAVE         SUNNY     97  37  12 SW13G23   29.93F HX  92
NEEDLES        SUNNY    109  46  12 MISG      29.74F HX 105
VICTORVILLE    SUNNY     99  37  12 S18       29.92F HX  93

$$

CAZ039-040-022300-
VENTURA AND SANTA BARBARA COUNTY COAST


CITY           SKY/WX    TMP DP  RH WIND       PRES   REMARKS
CAMARILLO      SUNNY     79  60  52 SW9       29.88F
OXNARD AIRPORT SUNNY     75  63  66 W12       29.89F
*POINT MUGU    MOSUNNY   76  62  62 W12       29.89F
SBA APT/GOLETA PTSUNNY   78  61  55 W10       29.87F
*SANTA BARBARA   N/A     85  62  45 NW8       29.94F
*VENTURA         N/A     80  62  53 SW9       29.50S

$$

CAZ044-045-022300-
VENTURA COUNTY VALLEYS


CITY           SKY/WX    TMP DP  RH WIND       PRES   REMARKS
*SIMI VALLEY     N/A     83  64  51 W6        29.82S
*OJAI            N/A     89  64  43 W2        29.79S HX  90

$$

CAZ053-022300-
VENTURA COUNTY MOUNTAINS


CITY           SKY/WX    TMP DP  RH WIND       PRES   REMARKS

$$

CAZ034-035-036-022300-
CENTRAL COAST AND SANTA YNEZ VALLEY


CITY           SKY/WX    TMP DP  RH WIND       PRES   REMARKS
SAN LUIS OBISP PTSUNNY   75  56  51 NW22G29   29.92S
SANTA MARIA    PTSUNNY   74  58  57 NW17      29.94S

CITY           SKY/WX    TMP DP  RH WIND       PRES   REMARKS
*CAL POLY SLO    N/A    N/A N/A N/A W6          N/A
*LOMPOC        PTSUNNY   75  55  50 NW15      29.95F
*PISMO BEACH     N/A     68  61  78 SW14      29.92F
*SANTA YNEZ    FAIR      79  54  41 W15       29.91S

$$

CAZ037-038-051-022300-
SAN LUIS OBISPO COUNTY INTERIOR AND CUYAMA VALLEY


CITY           SKY/WX    TMP DP  RH WIND       PRES   REMARKS
*CUYAMA          N/A     92  48  21 NW2       29.77F
PASO ROBLES    MOSUNNY   92  55  28 S14       29.87F HX  90

$$

CAZ032-033-061-022300-
SOUTHERN DESERTS


CITY           SKY/WX    TMP DP  RH WIND       PRES   REMARKS
BLYTHE         MOSUNNY  110  51  14 S10G18    29.71F HX 107
IMPERIAL       SUNNY    109  48  13 SE3       29.68F HX 105
PALM SPRINGS   SUNNY    112  46  11 NE7       29.73F HX 107
THERMAL        SUNNY    111  52  14 SE13G18   29.66F HX 108

$$

ELSEWHERE ACROSS THE WESTERN UNITED STATES AND MEXICO


CITY           SKY/WX    TMP DP  RH WIND       PRES   REMARKS
DENVER, CO     CLOUDY    81  47  30 SW20G35   30.08R
GRAND CANYON,  CLOUDY    65  59  81 NE7       30.21F
HONOLULU, HI   MOSUNNY   88  68  51 NE18G31   29.89F HX  91
KAHULUI, MAUI  MOSUNNY   88  66  48 NE21      29.93S HX  90
LAKE TAHOE, CA LGT RAIN  63  58  83 CALM      30.19S
LAS VEGAS, NV  MOSUNNY  102  48  16 N8        29.81F HX  98
MAMMOTH LAKES, FAIR      79  32  18 W18G24    30.24S
MEXICO CITY, M PTSUNNY   75  50  41 NE23      30.20F
PHOENIX, AZ    MOSUNNY  107  54  17 SW14      29.75F HX 105
PORTLAND, OR   CLOUDY    76  55  48 E6        29.92F
RENO, NV       CLOUDY    80  53  39 N14       30.07S
SALT LAKE CITY CLOUDY    90  34  13 S10       29.97R THUNDER
SAN DIEGO, CA  MOSUNNY   77  63  61 W13       29.90F
SAN FRANCISCO, PTSUNNY   71  56  58 W18       29.95F
SAN JOSE, CA   PTSUNNY   75  58  55 NW13      29.93F
SEATTLE, WA    PTSUNNY   81  53  37 SW5       29.94F
TIJUANA, MEX   SUNNY     79  61  53 W10       29.90F

$$

STATION/POSITION TIME  TEMP    WIND        PRES    VSBY  WAVE
                       AIR SEA DIR/SP/G                  HT/PER
                 (UTC) (F)     (DEG/KT/KT) (MB)    (MI)  (FT/S)
POINT ARGUELLO B NOT AVBL
WEST SANTA BARBA 2150   64 65  310/ 19/ 23 1012.1F         4/ 6
POINT CONCEPTION NOT AVBL
EAST SANTA BARBA 2100   67 70  270/ 16/ 17 1013.0S
SANTA MONICA BAY 2150   70 75  270/ 10/ 12 1012.0F         2/14



USA.gov is the U.S. government's official web portal to all federal, state and local government web resources and services.